Location: Krakow
(50.0830°N, 19.9170°E)
Time: 23:24:07
(UTC+01:00)

Courier 1B Rocket - Pass Details

Date: 18 December 2023
Orbit: 920 x 1202 km, 28.2° (Epoch: 24 February)

Event Time Altitude Azimuth Distance (km) Brightness Sun altitude
Rises 09:37:06 0° 238° (WSW) 4,037 8.3 11.9°
Reaches altitude 10° 09:43:07 10° 202° (SSW) 3,007 8.3 12.3°
Maximum altitude 09:44:26 11° 192° (SSW) 2,950 8.5 12.4°
Drops below altitude 10° 09:45:44 10° 182° (S) 2,971 8.9 12.5°
Sets 09:51:28 0° 145° (SE) 3,840 10.0 12.9°
